RS-44 & BREEZE-KM R/B

Last updated on Sun Jun 21 2026 00:03:20 GMT+0000 (Coordinated Universal Time)

1 44909U 19096E 26171.44517356 .00000024 00000+0 45367-4 0 9997 2 44909 82.5221 337.5395 0218289 136.5763 225.2766 12.79748893302760
UTC large
Height (km)
Speed (km/s)
/
Latitude / Longitude
Inclination (degrees)
Orbital Period (minutes)
Azimuth
Elevation
Range (km)
Doppler Factor

Next 0 passes for location: London (51.5072 / 0.1276)

No passes found over London.
RS-44 & BREEZE-KM R/B